Wetbulb
50.51 46.54 43.79 46.45 48.24 48.68 47.50 46.54 46.54 48.56 50.41 50.06 49.93 50.43 51.24 53.27 54.83 55.39 55.50 57.03 57.47 58.15 60.06 61.87 62.20 64.41 65.65 66.72 67.32 68.54 68.71 69.13 68.39 67.65 66.75 67.95 66.39 68.81 67.82 67.23 66.21 65.51 65.00 64.68
48.34 45.53 48.76 49.49 49.21 47.81 46.87 45.67 46.06 49.26 51.25 50.45 50.69 49.48 52.35 53.14 53.97 55.94 55.62 55.78 57.52 58.36 59.00 60.43 62.07 64.04 64.89 66.20 66.81 67.82 68.27 68.37 68.32 68.03 69.97 69.58 69.46 67.61 67.90 67.28 66.04 65.63 64.84 64.52
46.48 48.47 51.40 49.87 48.56 47.24 46.68 45.38 45.68 45.97 49.17 50.83 49.71 48.15 50.38 52.66 54.20 55.28 56.08 56.40 57.36 57.73 57.98 59.94 60.83 63.24 64.85 65.72 66.18 66.93 67.66 67.97 68.24 69.06 69.30 68.86 67.40 66.83 66.28 66.25 65.72 64.93 64.13 64.03
48.13 50.52 49.34 48.77 47.45 48.09 45.25 48.69 47.66 46.48 45.78 43.15 49.96 41.27 48.66 51.17 51.96 53.63 54.88 55.28 55.94 56.80 59.07 59.53 60.73 62.16 64.08 65.24 66.72 66.95 67.95 68.31 68.02 71.17 67.65 66.67 63.41 64.24 66.73 65.50 65.37 64.42 64.41 63.91
47.09 48.38 48.04 47.25 48.01 49.49 46.28 49.71 48.23 46.74 45.03 45.50 45.08 43.88 46.80 51.38 49.64 51.51 54.42 55.62 56.33 57.31 57.56 58.82 60.12 62.07 63.43 65.07 65.87 66.77 67.76 68.48 67.63 68.93 69.13 66.89 67.36 66.92 66.42 65.98 65.05 65.91 65.55 64.42
49.06 51.78 50.68 49.69 50.51 50.31 50.36 48.32 48.28 48.30 46.41 40.24 45.17 44.39 44.79 47.61 50.86 52.84 54.41 55.59 56.52 56.65 57.07 58.92 60.14 62.47 62.68 63.95 65.23 65.75 66.67 67.44 68.03 68.17 68.13 67.93 65.82 66.70 65.11 64.70 64.58 64.09 64.73 64.10
46.63 47.47 50.24 51.24 47.97 50.10 48.84 46.45 40.83 38.92 39.34 39.39 46.66 43.68 46.56 51.40 53.13 53.77 55.13 55.78 56.77 57.69 56.95 57.77 58.57 58.92 61.80 62.70 63.47 64.93 65.73 65.49 66.75 67.15 66.60 67.18 67.96 67.25 66.20 65.45 63.15 64.16 62.81 63.07
42.30 40.40 47.11 50.33 48.59 46.55 47.01 45.90 41.07 34.60 37.18 39.72 46.59 42.33 46.55 53.76 54.69 55.22 56.23 57.28 57.56 57.17 57.61 58.31 59.53 61.12 60.30 62.52 63.67 64.48 64.91 65.19 65.85 65.95 65.79 66.08 66.53 64.25 63.86 64.48 62.86 63.55 63.30 62.38
43.41 42.66 49.56 50.16 50.72 49.70 46.55 44.13 48.04 43.62 44.56 41.45 44.50 47.95 51.30 53.44 53.20 53.87 54.52 55.84 56.75 57.48 58.73 58.80 59.70 62.44 61.33 62.97 63.60 63.97 64.40 64.89 65.31 65.26 65.28 65.50 65.24 64.91 64.61 66.87 65.72 63.71 64.02 61.75
48.76 43.23 48.90 49.64 51.50 50.91 48.57 49.48 43.54 45.06 36.89 35.61 41.54 44.41 45.58 50.27 51.54 53.24 53.13 55.02 56.17 58.16 57.93 58.45 59.71 62.94 64.42 64.37 64.39 64.61 64.96 64.38 65.09 65.05 65.03 64.77 64.69 64.93 64.75 64.85 63.97 63.67 63.47 62.56
49.65 46.51 46.15 49.71 47.07 46.12 47.01 44.62 45.84 46.85 43.97 38.54 37.97 42.31 53.02 53.22 53.21 54.16 54.70 55.75 56.95 56.70 56.68 57.94 59.07 61.28 62.17 64.06 63.29 64.12 64.10 63.85 64.01 64.90 64.85 64.46 64.06 64.20 64.37 63.79 63.43 63.17 63.10 62.03
47.61 44.89 41.88 44.87 49.47 50.40 49.89 47.22 46.32 40.17 39.91 44.17 43.33 42.73 53.20 54.24 53.93 55.75 55.08 56.24 57.12 56.75 56.47 57.64 58.83 60.37 60.92 62.37 62.86 63.48 64.04 62.88 63.39 64.72 64.67 64.46 64.45 64.66 64.42 63.68 63.27 63.07 61.59 61.30
43.74 42.38 38.08 40.45 45.59 48.72 46.94 47.41 48.39 48.49 47.29 42.18 39.04 41.94 55.60 53.90 54.00 56.13 55.93 56.28 56.23 57.43 56.41 57.65 58.81 59.22 60.19 61.26 61.96 62.27 63.15 62.64 62.84 63.97 63.88 63.99 63.82 63.35 63.26 63.27 62.93 62.24 61.05 59.83
43.87 40.12 38.55 35.66 40.42 43.77 38.72 41.87 42.55 42.16 40.34 41.97 41.21 43.99 48.65 51.13 53.98 54.11 55.25 57.81 56.79 57.28 57.58 57.34 58.74 59.46 60.43 61.20 61.55 61.87 62.10 62.81 63.52 63.69 62.98 62.81 62.89 62.84 62.67 63.18 62.76 61.39 60.03 58.66
39.93 34.03 37.08 38.84 40.91 40.90 40.19 40.30 41.63 40.84 42.27 41.10 44.11 44.64 48.86 51.26 52.24 51.30 53.58 55.47 55.64 55.94 57.02 58.11 59.07 59.81 59.98 61.12 61.91 62.06 62.27 62.85 63.02 62.23 62.22 63.77 64.52 63.79 62.69 61.45 60.18 59.84 59.22 58.07
39.14 31.64 34.99 33.15 37.43 38.22 36.64 39.32 40.83 41.54 42.60 42.03 44.49 45.94 52.42 53.30 50.29 50.65 52.87 54.53 53.61 53.82 55.77 54.63 58.57 59.59 60.71 62.25 62.64 61.95 62.19 62.50 63.80 62.75 61.59 62.85 62.50 61.63 60.94 60.53 59.32 58.34 57.41 56.94
34.33 32.20 30.29 26.78 34.32 34.86 31.33 37.30 38.93 40.75 42.96 42.93 38.64 44.76 50.45 49.43 50.16 51.62 51.27 53.59 54.31 54.50 55.30 55.67 58.17 60.72 61.56 62.10 63.98 64.81 64.82 64.39 63.73 62.76 61.93 61.56 61.50 59.64 59.26 58.69 57.91 56.96 56.65 56.62
34.42 32.88 31.52 27.29 30.25 20.71 34.50 41.24 41.52 40.18 41.84 44.19 44.45 46.15 47.48 48.51 50.11 50.03 50.93 51.10 52.34 53.57 55.40 56.78 57.23 58.88 60.18 62.41 62.99 65.67 64.43 63.76 62.29 61.50 60.87 60.70 59.12 58.06 57.92 57.63 56.13 56.12 55.76 54.50
38.51 34.57 29.00 25.21 25.68 29.85 33.49 37.65 37.81 37.23 38.33 43.82 43.19 45.96 46.92 48.19 47.53 47.83 50.86 52.01 53.22 54.70 56.74 59.06 59.97 60.24 60.99 61.25 62.24 62.03 64.46 63.17 61.65 60.23 59.25 58.89 58.26 56.95 55.85 54.31 54.56 54.08 52.19 51.91
37.19 36.58 30.62 28.08 22.77 20.40 32.13 38.39 41.38 41.11 31.21 42.42 43.52 44.80 45.24 45.42 40.09 43.86 51.32 52.45 52.65 54.44 55.57 57.06 59.55 59.38 59.67 60.98 62.32 64.53 62.78 61.29 59.15 58.05 58.29 58.01 56.40 55.13 53.87 54.04 52.33 51.67 50.90 49.61
30.88 31.16 26.16 27.13 24.52 29.08 37.37 40.05 42.10 29.01 32.47 44.01 45.00 45.32 45.44 43.69 46.24 50.34 51.64 50.96 52.62 55.13 55.65 56.74 56.89 56.49 58.67 60.15 61.74 61.89 60.25 58.45 58.77 57.91 55.85 55.07 55.23 55.13 54.36 52.44 51.65 50.59 49.71 49.46
29.48 28.15 28.16 29.02 25.10 21.59 39.56 39.59 33.69 37.48 42.15 43.20 43.95 44.98 45.51 46.96 48.40 49.27 50.34 50.45 51.87 52.41 53.46 55.56 55.75 56.52 57.86 61.09 60.86 58.90 57.82 58.74 56.14 54.78 53.71 53.81 53.40 51.59 50.89 51.14 51.10 50.76 49.61 48.39
28.40 32.63 31.36 31.55 30.73 39.61 41.51 40.76 43.79 42.63 42.65 42.82 43.39 45.37 45.96 45.28 46.67 47.90 47.41 50.66 50.87 51.50 52.86 55.22 55.31 55.59 57.96 59.21 59.01 57.45 58.08 56.04 53.92 52.86 53.17 51.72 51.08 51.08 51.57 50.81 49.69 48.74 48.99 48.07
35.00 38.46 32.52 32.90 36.60 38.25 40.91 42.56 43.75 44.18 42.92 44.18 45.05 45.70 46.44 45.01 46.22 46.91 48.04 49.11 49.67 50.37 52.30 53.93 53.39 54.78 55.16 54.50 56.11 56.73 54.88 53.63 51.85 51.23 50.90 51.45 50.94 50.65 50.69 50.16 48.99 48.52 47.48 46.15
35.03 35.80 33.39 34.32 37.62 39.43 40.71 41.94 42.98 43.15 43.84 43.68 45.76 45.88 45.71 45.60 46.08 46.90 47.39 49.13 49.54 51.11 52.58 52.92 52.43 53.54 53.08 54.77 54.20 54.06 52.86 51.75 50.55 50.31 50.12 50.22 49.99 50.12 49.03 49.39 48.65 47.20 47.92 43.71
36.24 33.99 32.03 31.61 38.38 38.94 39.59 42.64 43.26 43.39 43.53 45.25 44.59 44.60 46.46 45.97 45.84 47.13 47.71 49.22 49.44 50.15 52.31 53.33 54.31 53.07 52.36 52.71 52.72 52.00 51.63 49.95 49.03 48.64 48.48 47.98 47.25 47.61 47.57 46.75 46.57 43.81 41.79 40.49
MSLP
1002.68 1002.63 1001.58 1001.20 1000.85 1000.40 1000.10 999.66 998.68 998.35 998.61 998.02 997.72 998.15 998.63 998.37 998.43 998.68 999.67 1000.31 1001.21 1001.90 1002.79 1003.94 1005.06 1006.32 1007.67 1008.95 1009.95 1010.61 1011.14 1011.88 1012.50 1013.09 1013.45 1013.76 1014.00 1014.17 1014.41 1014.68 1015.16 1015.64 1015.98 1016.11
1002.19 1001.16 1001.06 1000.55 1000.15 1000.04 999.94 999.44 998.50 997.84 997.32 997.49 997.19 997.65 998.05 998.26 997.95 997.98 998.66 999.64 1000.37 1001.25 1002.13 1003.27 1004.54 1005.91 1007.24 1008.69 1009.74 1010.51 1011.08 1011.73 1012.27 1012.77 1013.00 1013.26 1013.42 1013.85 1014.16 1014.57 1015.15 1015.45 1015.89 1016.11
1000.88 1000.30 999.99 999.87 999.64 999.34 999.02 998.90 998.90 998.41 997.85 997.34 997.11 997.17 997.88 998.00 997.77 997.63 997.78 998.68 999.65 1000.29 1001.22 1002.49 1003.82 1005.16 1006.67 1008.06 1009.29 1010.22 1010.89 1011.61 1012.07 1012.37 1012.90 1013.38 1013.71 1014.07 1014.36 1014.66 1014.96 1015.39 1015.58 1015.73
1000.40 999.94 999.14 998.95 999.07 998.97 998.42 998.93 999.10 998.73 998.71 997.69 997.35 997.22 998.15 998.00 997.59 997.29 997.29 997.87 998.65 999.44 1000.20 1001.36 1002.74 1004.29 1005.63 1007.20 1008.72 1009.85 1010.67 1011.40 1011.87 1012.15 1012.62 1013.26 1013.66 1013.77 1014.07 1014.25 1014.66 1014.94 1015.19 1015.34
999.74 999.27 998.70 998.51 998.55 999.04 998.80 999.16 999.04 999.13 999.08 998.66 997.79 997.14 996.85 997.04 996.73 996.39 996.45 996.99 997.82 998.56 999.36 1000.32 1001.59 1003.28 1004.66 1006.13 1007.67 1009.11 1010.27 1011.15 1011.65 1012.01 1012.36 1012.95 1013.22 1013.19 1013.48 1013.81 1014.34 1014.68 1014.94 1014.97
999.61 999.10 998.39 998.22 998.34 998.97 999.02 999.05 999.17 999.22 998.96 998.79 997.90 997.22 996.15 995.80 995.37 994.77 995.22 995.93 997.07 998.08 998.86 999.59 1000.62 1002.15 1003.69 1004.87 1006.19 1007.75 1009.27 1010.54 1011.48 1012.00 1012.37 1012.74 1013.04 1013.14 1013.36 1013.78 1014.30 1014.64 1014.55 1014.65
1000.07 999.24 998.67 998.43 998.54 998.62 998.94 999.30 999.44 999.67 999.33 998.25 998.04 997.28 995.59 995.29 994.67 994.30 994.09 994.94 996.16 997.27 998.19 999.01 999.83 1000.73 1002.11 1003.37 1004.81 1006.66 1008.21 1009.73 1010.94 1011.70 1012.36 1012.75 1013.03 1013.23 1013.62 1013.91 1014.22 1014.22 1014.44 1014.46
999.57 999.01 998.61 998.39 998.29 998.73 998.62 999.81 999.88 999.60 999.13 998.21 997.59 996.18 994.98 995.12 994.27 994.59 994.83 994.86 996.09 997.04 997.76 998.54 999.20 999.96 1000.70 1002.27 1003.91 1005.58 1007.45 1008.96 1010.14 1011.12 1011.97 1012.69 1013.09 1013.30 1013.53 1013.74 1013.84 1013.90 1014.21 1014.46
999.79 998.69 998.29 997.64 997.83 998.32 998.54 998.72 999.67 999.86 999.37 998.20 996.78 995.14 994.49 994.61 994.52 994.91 995.59 996.22 997.14 998.02 998.66 999.13 999.61 1000.01 1000.71 1001.83 1003.10 1004.43 1006.50 1008.04 1009.40 1010.46 1011.39 1012.11 1012.63 1012.94 1012.93 1013.22 1013.60 1013.98 1014.15 1014.22
1000.86 999.99 998.88 997.78 997.47 997.27 998.32 998.93 999.29 999.47 999.49 998.72 997.20 995.52 994.04 994.27 994.75 995.30 995.94 996.72 997.71 998.48 999.28 1000.01 1000.34 1000.52 1000.96 1001.44 1002.71 1004.07 1005.76 1007.26 1008.63 1009.81 1010.67 1011.41 1012.01 1012.43 1012.83 1013.17 1013.47 1013.82 1014.00 1014.13
1002.91 1002.34 1000.56 999.56 998.43 998.16 998.27 998.85 999.44 999.75 1000.15 999.24 997.90 996.33 995.17 994.50 994.93 995.58 996.33 997.10 997.84 998.81 999.47 1000.13 1000.90 1001.17 1001.43 1001.58 1002.80 1004.28 1005.56 1006.96 1008.11 1009.12 1009.99 1010.79 1011.36 1011.90 1012.39 1012.73 1013.15 1013.49 1013.69 1013.81
1005.63 1004.76 1002.45 1000.98 999.84 999.23 998.70 998.82 999.68 1000.22 1000.34 999.72 998.76 996.99 995.91 995.81 995.91 996.61 997.01 997.45 998.10 998.88 999.52 1000.14 1001.07 1001.87 1002.07 1002.28 1003.22 1004.53 1005.47 1006.40 1007.45 1008.41 1009.29 1010.18 1010.89 1011.43 1011.91 1012.34 1012.71 1013.02 1013.19 1013.27
1008.66 1006.61 1004.81 1003.02 1001.99 1000.83 999.90 1000.04 1000.18 1000.44 1000.63 1000.16 999.40 998.04 997.18 996.81 996.87 997.25 998.01 998.36 999.19 999.50 999.83 1000.19 1001.14 1002.10 1002.43 1003.00 1003.63 1004.66 1005.63 1006.35 1006.95 1007.86 1008.76 1009.60 1010.31 1010.95 1011.47 1011.89 1012.23 1012.47 1012.62 1012.72
1010.50 1009.24 1007.80 1005.61 1003.64 1003.34 1003.11 1002.11 1002.14 1002.67 1002.62 1000.87 1000.46 999.49 997.82 997.49 997.91 998.77 999.04 998.96 999.02 999.61 1000.05 1000.08 1000.76 1001.59 1002.18 1002.79 1003.41 1004.16 1005.16 1005.92 1006.60 1007.17 1007.98 1008.75 1009.58 1010.28 1010.86 1011.27 1011.62 1011.87 1012.03 1012.07
1013.11 1011.32 1009.93 1008.11 1006.83 1005.60 1004.95 1004.25 1003.94 1003.73 1003.77 1001.86 1000.72 1000.16 999.12 998.91 999.67 1000.64 1001.27 1001.17 1000.39 1000.50 1000.49 1000.60 1000.73 1000.96 1001.47 1002.12 1002.89 1003.62 1004.38 1005.14 1005.85 1006.61 1007.43 1008.15 1008.92 1009.61 1010.23 1010.72 1011.05 1011.25 1011.40 1011.46
1013.93 1013.20 1012.02 1010.25 1009.17 1007.77 1005.99 1005.48 1004.65 1003.96 1004.05 1003.58 1001.74 999.95 999.00 998.92 1000.04 1002.06 1002.05 1001.60 1001.69 1002.12 1002.07 1002.59 1001.08 1001.20 1001.23 1001.78 1002.50 1003.08 1003.62 1004.21 1004.94 1005.90 1006.71 1007.63 1008.47 1009.15 1009.79 1010.18 1010.50 1010.67 1010.74 1010.79
1013.97 1013.87 1013.41 1011.70 1010.82 1009.20 1007.59 1005.84 1005.08 1004.09 1003.33 1002.96 1002.13 1001.80 1000.21 999.89 999.82 1000.95 1002.63 1002.29 1002.59 1003.14 1003.77 1003.84 1001.93 1001.31 1001.54 1001.69 1002.12 1002.72 1003.20 1003.83 1004.65 1005.59 1006.50 1007.39 1008.29 1008.97 1009.37 1009.62 1009.88 1010.11 1010.27 1010.34
1012.76 1013.02 1013.42 1012.60 1011.87 1009.62 1008.23 1007.27 1006.33 1005.09 1004.13 1003.45 1002.77 1002.42 1001.50 1000.98 1001.18 1001.25 1001.90 1002.84 1003.14 1003.02 1002.84 1002.80 1002.71 1002.43 1002.34 1002.33 1002.52 1002.68 1002.99 1003.57 1004.56 1005.53 1006.49 1007.43 1008.37 1008.76 1009.07 1009.39 1009.73 1009.97 1010.07 1010.11
1012.02 1012.43 1012.45 1012.39 1011.42 1010.23 1008.66 1007.35 1006.48 1005.50 1004.06 1003.89 1003.32 1002.76 1002.23 1001.73 1001.86 1001.84 1002.68 1002.85 1003.12 1003.34 1003.45 1003.07 1003.30 1003.39 1003.34 1003.26 1003.05 1003.22 1003.15 1003.85 1004.71 1005.71 1006.73 1007.66 1008.39 1008.79 1009.18 1009.55 1009.81 1010.02 1010.05 1009.96
1011.19 1011.89 1013.07 1012.83 1011.30 1009.84 1008.37 1007.63 1007.34 1006.52 1004.68 1004.91 1004.41 1003.51 1003.10 1003.09 1002.79 1002.55 1002.97 1003.47 1003.94 1004.20 1004.30 1004.29 1004.18 1004.20 1003.94 1003.69 1003.61 1003.50 1003.96 1004.59 1005.52 1006.42 1007.23 1007.89 1008.64 1009.23 1009.58 1009.81 1010.10 1010.23 1010.21 1009.95
1010.76 1011.25 1012.04 1011.71 1010.91 1009.94 1008.45 1007.47 1006.77 1006.19 1006.38 1005.56 1005.02 1004.42 1004.23 1004.28 1004.12 1004.08 1003.91 1003.78 1004.19 1004.34 1004.46 1004.59 1004.59 1004.56 1004.31 1004.17 1004.08 1004.09 1004.79 1005.57 1006.38 1006.90 1007.72 1008.48 1009.00 1009.45 1009.80 1010.03 1010.02 1009.95 1009.72 1009.33
1010.87 1010.89 1010.63 1010.52 1010.00 1008.90 1008.23 1007.67 1007.02 1007.83 1007.72 1007.03 1006.63 1005.67 1005.26 1005.53 1005.38 1005.21 1004.86 1005.04 1004.66 1004.87 1004.96 1004.95 1004.71 1004.52 1004.60 1004.27 1004.70 1005.19 1005.84 1006.38 1006.98 1007.81 1008.40 1008.94 1009.42 1009.87 1009.79 1009.75 1009.52 1009.33 1009.17 1008.79
1010.99 1010.68 1009.92 1009.65 1008.52 1007.66 1007.18 1007.18 1007.16 1007.84 1007.71 1007.52 1007.28 1007.00 1006.28 1006.03 1006.14 1006.00 1006.04 1006.09 1005.60 1005.42 1005.34 1005.21 1005.15 1005.03 1005.13 1005.05 1005.32 1005.66 1006.18 1006.97 1007.72 1008.41 1008.90 1009.43 1009.70 1009.61 1009.40 1009.21 1009.13 1008.84 1008.50 1008.08
1010.38 1009.83 1009.45 1009.29 1007.66 1007.24 1006.79 1006.37 1006.31 1006.44 1006.62 1007.17 1007.27 1006.54 1006.34 1006.05 1005.94 1005.73 1005.77 1005.96 1005.91 1005.65 1005.42 1005.35 1005.76 1005.84 1005.64 1005.73 1005.98 1006.03 1006.87 1007.53 1008.29 1008.93 1009.40 1009.59 1009.48 1009.28 1009.12 1008.93 1008.76 1008.31 1008.15 1008.00
1009.96 1009.80 1009.02 1007.82 1007.06 1006.72 1005.90 1005.53 1005.53 1005.32 1006.23 1007.08 1006.24 1005.83 1005.64 1005.23 1005.17 1005.21 1005.68 1005.90 1005.91 1005.40 1005.32 1005.49 1005.58 1005.88 1005.66 1006.01 1006.38 1006.69 1007.35 1008.25 1008.88 1009.24 1009.35 1009.27 1009.24 1009.12 1008.87 1008.49 1008.44 1008.43 1008.22 1008.41
1008.94 1008.65 1008.33 1007.04 1006.81 1006.64 1005.74 1005.06 1004.90 1004.45 1004.48 1005.22 1005.21 1004.99 1004.70 1004.55 1004.88 1005.38 1004.84 1005.22 1005.61 1005.11 1005.35 1005.65 1005.91 1006.28 1005.83 1006.07 1006.44 1007.28 1008.21 1008.99 1009.30 1009.30 1009.11 1009.07 1009.10 1009.01 1008.77 1008.65 1008.21 1008.39 1008.27 1007.98
Wind_Speed
17 14 18 21 21 20 18 22 21 17 25 19 22 18 19 19 17 23 18 16 18 17 16 16 15 16 16 14 12 9 10 10 7 5 5 4 5 3 2 4 6 3 4 4
17 19 20 20 20 22 21 23 23 21 18 21 20 20 18 17 19 16 19 18 15 18 17 18 16 17 17 15 13 10 10 11 8 6 3 3 2 4 4 4 5 4 2 1
20 20 23 20 19 22 23 22 21 23 18 18 17 15 11 14 19 19 17 14 16 17 19 17 19 19 18 18 16 13 11 12 9 7 6 3 4 3 3 4 4 5 3 1
21 20 24 12 15 19 17 15 18 19 17 17 16 13 16 19 21 20 18 19 20 20 16 19 21 20 19 18 16 14 12 13 10 6 7 7 5 5 3 4 5 3 3 4
21 21 21 19 19 18 17 17 19 21 20 19 22 16 14 17 24 24 20 18 16 13 15 19 19 21 21 19 18 15 13 12 10 7 7 7 4 4 4 3 5 4 4 6
23 21 19 18 14 17 17 18 19 15 14 15 20 20 16 15 17 16 20 20 18 16 16 15 18 21 22 20 20 19 17 13 10 9 6 6 9 4 3 4 2 3 3 1
21 25 22 17 14 17 21 12 9 12 14 13 19 20 16 16 13 5 15 19 20 18 17 16 20 20 23 24 21 19 19 16 13 10 8 5 4 4 4 3 4 3 2 2
17 19 24 19 21 20 15 15 12 14 13 17 21 20 18 21 23 5 7 7 9 7 6 5 7 6 12 22 21 21 20 18 15 12 10 8 6 5 5 5 5 2 2 3
20 27 24 24 25 22 23 17 20 19 20 16 16 19 24 9 9 8 9 9 9 4 2 4 8 7 9 15 20 20 22 19 16 13 10 9 8 7 5 3 2 2 4 4
8 16 21 20 18 23 20 16 15 12 17 19 18 19 8 14 14 13 11 11 7 8 4 4 6 5 5 7 16 16 20 18 15 14 11 10 9 8 6 4 5 5 4 5
10 9 16 19 20 16 13 15 16 13 10 14 14 14 14 5 15 7 11 13 13 10 11 8 6 2 5 4 16 12 15 17 13 12 12 10 9 8 8 6 5 5 5 6
12 7 14 23 23 24 19 19 18 9 15 12 15 13 8 12 12 11 13 10 11 10 7 10 7 6 6 6 13 11 9 11 12 12 11 10 8 6 6 5 5 5 7 7
11 7 12 17 19 21 24 18 15 15 14 17 14 12 7 10 5 7 9 7 8 8 5 10 12 8 7 8 9 12 9 11 12 13 12 10 8 9 7 7 7 7 7 8
7 10 14 14 17 15 14 21 16 13 12 12 15 20 23 18 3 6 4 3 12 12 9 7 12 13 11 12 12 14 15 12 9 9 11 10 10 8 8 6 5 6 7 9
14 13 19 22 24 26 25 24 21 17 22 18 15 26 22 19 13 21 18 11 13 12 2 9 6 8 13 12 10 9 13 14 13 11 8 6 6 6 5 5 7 7 7 7
11 9 17 19 22 23 29 26 25 25 15 24 25 25 17 17 19 10 12 4 11 10 13 22 6 10 6 4 7 10 10 9 8 9 9 7 6 5 6 6 6 7 8 8
17 15 16 19 21 20 20 23 26 26 24 17 17 23 18 17 19 5 13 10 12 12 15 17 15 7 5 3 3 2 3 8 6 5 5 5 4 6 6 6 6 6 6 7
22 20 15 17 19 23 15 19 22 22 25 24 24 22 22 19 16 18 12 10 8 13 10 7 12 13 10 10 7 3 5 8 8 7 5 3 6 8 5 4 6 6 7 9
17 19 17 15 17 20 24 20 19 21 23 18 19 22 22 19 16 17 11 11 9 11 10 6 7 11 11 12 9 10 3 5 5 5 3 4 6 5 5 7 7 7 9 11
9 3 10 16 17 19 20 25 26 25 23 21 21 18 17 14 12 11 14 13 12 10 9 9 9 11 11 11 12 3 2 4 3 2 4 3 5 5 7 6 7 8 9 12
12 7 11 11 11 9 20 23 23 19 12 17 19 17 18 11 11 12 13 17 10 9 10 9 9 10 11 10 12 2 4 3 3 1 5 4 5 5 5 7 8 9 11 12
15 12 12 12 16 20 5 16 20 5 12 12 14 15 12 9 14 16 11 13 12 10 11 12 10 10 12 10 6 6 3 2 7 3 3 5 5 6 7 9 9 9 10 12
15 11 11 14 10 10 11 12 8 7 11 11 12 13 12 11 12 13 13 1 10 11 10 11 11 16 3 7 7 6 3 6 2 3 4 5 7 8 8 7 9 8 9 8
18 18 8 14 15 18 20 18 16 14 19 10 14 14 13 14 15 12 9 8 9 10 11 9 10 8 7 5 6 6 7 5 1 4 5 6 6 7 6 5 7 7 8 8
12 16 20 22 21 19 22 20 19 16 13 10 21 17 20 16 15 12 11 7 11 12 7 9 7 6 7 8 7 6 5 2 4 3 6 5 6 6 6 5 5 7 7 3
13 20 16 18 20 17 21 14 20 18 13 13 15 14 16 15 7 16 12 8 12 13 8 8 10 4 8 9 8 7 4 0 3 5 4 4 5 6 6 6 7 9 8 9
Wind_Direction
214 228 229 230 229 246 248 254 242 208 250 237 208 207 208 255 241 185 194 200 199 199 185 167 171 155 151 148 156 162 146 146 139 148 171 146 169 140 128 112 107 79 51 21
234 225 242 239 235 234 241 256 264 265 227 243 203 215 232 221 250 203 190 200 208 196 193 174 168 160 159 156 164 165 161 155 160 171 188 154 154 142 96 93 128 130 150 333
232 238 226 229 250 239 237 235 249 262 272 266 260 227 223 246 233 245 210 207 214 212 192 181 173 165 162 163 170 176 172 163 176 183 117 86 78 65 161 177 186 157 173 195
245 250 258 229 249 255 247 248 263 267 252 256 222 243 236 239 252 234 241 199 207 210 203 185 176 171 168 171 169 173 175 168 186 204 149 159 183 190 132 149 114 121 202 219
254 244 248 241 235 257 252 244 243 232 249 261 253 236 236 226 224 230 221 221 217 222 215 188 179 176 175 170 169 172 174 170 186 201 174 173 204 180 151 150 115 172 238 209
258 267 266 241 249 243 257 246 251 272 231 241 248 251 236 242 252 239 213 199 205 207 218 199 187 173 181 179 172 170 169 174 189 182 207 192 180 214 125 141 70 262 246 153
256 257 253 262 249 249 231 233 241 228 237 234 235 242 246 260 248 248 221 195 197 197 203 197 195 197 182 180 177 167 167 174 178 174 186 222 195 160 180 188 220 221 267 261
255 236 244 232 223 246 200 222 232 232 234 238 230 242 240 239 260 175 51 139 133 145 184 220 246 237 206 173 171 162 166 171 170 173 185 196 197 196 201 213 227 240 337 313
245 257 263 228 232 212 244 213 232 254 264 263 264 244 219 180 115 138 141 129 114 126 233 290 264 225 218 175 171 165 164 166 171 179 183 193 195 217 219 233 93 234 238 264
296 293 262 267 282 214 219 251 243 222 240 256 260 265 277 175 194 173 172 157 176 121 124 227 269 275 275 197 166 162 153 161 166 179 186 194 197 201 205 223 230 251 273 273
319 288 269 278 260 250 210 215 245 276 229 265 248 255 284 294 188 205 188 180 154 153 200 160 225 179 232 167 140 147 149 155 170 184 184 191 198 199 207 210 223 237 253 260
15 310 279 256 263 270 260 237 223 235 253 246 248 240 269 45 99 221 182 165 131 154 164 145 134 157 195 135 137 144 155 172 176 185 185 185 193 200 210 216 229 241 250 256
353 285 283 266 264 273 270 253 251 260 228 240 251 250 227 155 88 99 140 149 159 154 177 145 137 160 162 152 150 156 175 194 194 179 182 187 193 200 206 217 227 238 252 261
324 266 268 264 276 312 310 309 336 332 296 220 246 274 255 264 75 27 26 252 171 172 184 191 159 162 171 167 176 174 178 194 200 188 188 188 192 197 212 221 236 252 255 258
331 303 304 281 279 286 284 285 285 268 276 255 237 221 254 271 85 50 340 309 348 352 260 189 209 172 167 166 169 180 180 186 187 186 200 188 170 184 212 235 246 254 262 267
285 290 301 289 290 284 284 278 276 270 240 276 275 265 244 234 104 84 293 300 348 334 353 330 254 195 206 213 176 189 193 194 177 180 189 176 181 208 226 233 250 254 259 264
274 280 285 279 285 288 270 269 267 271 271 257 264 298 301 307 325 111 162 269 187 226 205 240 269 342 18 206 172 224 223 174 159 176 192 199 213 243 245 250 261 273 282 281
268 261 259 266 277 262 267 273 283 280 273 276 279 276 280 291 305 322 328 317 317 297 295 334 327 338 347 343 336 274 251 151 158 173 209 220 255 260 274 294 297 293 292 287
256 253 255 253 254 269 271 264 261 266 274 276 280 268 271 283 318 292 307 317 317 336 333 327 342 341 343 338 337 321 95 118 150 183 195 241 259 280 315 300 299 314 304 291
226 284 258 253 253 249 251 254 259 272 271 280 281 285 282 294 276 291 323 359 342 335 334 332 342 330 326 325 318 314 134 125 127 189 239 285 7 321 293 305 311 296 293 289
283 220 218 256 253 253 275 277 282 259 266 291 276 270 275 308 294 316 280 287 287 316 316 309 321 306 297 302 304 112 109 141 202 61 39 330 301 300 321 289 277 280 281 282
268 263 264 262 260 266 284 311 263 358 313 303 333 310 313 324 317 326 312 331 329 299 296 310 305 282 319 283 100 108 164 161 70 34 312 286 336 306 290 277 274 282 289 285
271 260 272 256 259 269 255 263 259 305 283 291 290 289 295 285 285 299 310 306 295 296 302 297 331 324 307 112 137 149 139 84 63 306 302 314 287 275 275 292 291 293 284 302
290 287 287 279 270 275 271 265 267 252 237 246 260 264 276 278 251 273 288 290 292 300 279 317 313 291 162 134 141 99 97 96 338 281 276 272 279 276 282 299 295 302 322 317
256 291 289 288 274 268 252 259 264 261 142 228 255 256 246 267 267 246 286 260 296 277 290 298 326 221 159 160 141 121 102 97 260 266 260 272 278 309 303 304 332 310 303 356
256 259 262 266 274 281 281 271 265 262 222 212 246 257 263 271 224 276 267 235 233 269 278 322 300 251 163 155 118 116 119 121 260 275 279 312 311 305 325 326 321 344 300 305